This is the latest recevied weather packets stored in our database for station/object K6CED. If no packets are shown the sender has not sent any weather packets the latest 10 day(s).
| Time | Temp. | Humidity | Pressure | Rain* | Wind** | Luminosity | Snow |
|---|---|---|---|---|---|---|---|
| 1787871044 | 31.11° C | 52% | 1013.7 hPa | 0 mm | - | 246 W/m² | - |
| 1787870743 | 31.11° C | 51% | 1013.8 hPa | 0 mm | - | 252 W/m² | - |
| 1787870438 | 31.11° C | 51% | 1013.7 hPa | 0 mm | - | 274 W/m² | - |
| 1787870133 | 31.11° C | 51% | 1013.9 hPa | 0 mm | - | 294 W/m² | - |
| 1787869832 | 31.11° C | 52% | 1013.8 hPa | 0 mm | - | 280 W/m² | - |
| 1787869532 | 31.11° C | 52% | 1013.7 hPa | 0 mm | - | 261 W/m² | - |
| 1787869227 | 31.11° C | 52% | 1013.7 hPa | 0 mm | - | 265 W/m² | - |
| 1787868926 | 31.67° C | 51% | 1013.8 hPa | 0 mm | - | 273 W/m² | - |
| 1787868621 | 31.11° C | 52% | 1013.9 hPa | 0 mm | - | 280 W/m² | - |
| 1787868319 | 31.67° C | 51% | 1014.3 hPa | 0 mm | - | 276 W/m² | - |
| 1787868014 | 31.67° C | 51% | 1014.2 hPa | 0 mm | - | 254 W/m² | - |
| 1787867709 | 31.67° C | 51% | 1014.2 hPa | 0 mm | - | 242 W/m² | - |
| 1787867404 | 31.67° C | 51% | 1013.9 hPa | 0 mm | - | 233 W/m² | - |
| 1787867100 | 32.22° C | 50% | 1014.2 hPa | 0 mm | - | 219 W/m² | - |
| 1787866795 | 32.22° C | 50% | 1014.1 hPa | 0 mm | - | 213 W/m² | - |
| 1787866495 | 32.22° C | 50% | 1014.3 hPa | 0 mm | - | 220 W/m² | - |
| 1787866193 | 32.78° C | 49% | 1014.5 hPa | 0 mm | - | 230 W/m² | - |
| 1787865888 | 32.78° C | 48% | 1014.3 hPa | 0 mm | - | 244 W/m² | - |
| 1787865583 | 32.78° C | 48% | 1014.5 hPa | 0 mm | - | 268 W/m² | - |
| 1787865277 | 32.78° C | 48% | 1014.5 hPa | 0 mm | - | 284 W/m² | - |
| 1787864974 | 33.33° C | 46% | 1014.6 hPa | 0 mm | - | 279 W/m² | - |
| 1787864670 | 33.33° C | 45% | 1014.6 hPa | 0 mm | - | 285 W/m² | - |
| 1787864363 | 33.89° C | 43% | 1014.5 hPa | 0 mm | - | 294 W/m² | - |
| 1787864058 | 33.89° C | 43% | 1014.6 hPa | 0 mm | - | 313 W/m² | - |
| 1787863756 | 33.89° C | 44% | 1014.7 hPa | 0 mm | - | 322 W/m² | - |
* Rain latest hour (hover to see other rain measurements)
** Current wind speed in m/s (hover to see current wind gust speed)